Regional Weather Roundup
Issued by NWS

Home | Current Version | Previous Version | Text Only | Print | Product List | Glossary On
Versions: 1 2 3 4 5 6 7 8 9 10 11 12 13 14 15 16 17 18 19 20 21 22 23 24 25 26 27 28 29 30 31 32 33 34 35 36 37 38 39 40 41 42 43 44 45 46 47 48 49 50
000
ASUS43 KMPX 271010
RWRMN
WEATHER ROUNDUP FOR MINNESOTA
NATIONAL WEATHER SERVICE TWIN CITIES/CHANHASSEN MN
500 AM CDT MON MAR 27 2017


NOTE: "FAIR" INDICATES FEW OR NO CLOUDS BELOW 12,000 FEET WITH NO
SIGNIFICANT WEATHER AND/OR OBSTRUCTIONS TO VISIBILITY. N/A MEANS
CURRENT SKY AND/OR WEATHER CONDITIONS ARE NOT AVAILABLE.

MNZ060>063-068>070-271100-
   Twin Cities Metro

CITY           SKY/WX    TMP DP  RH WIND       PRES   REMARKS
TWIN CITIES    DRIZZLE   38  34  85 N6        29.96R
ST PAUL        CLOUDY    37  36  96 NW8       29.97R FOG
CRYSTAL        CLOUDY    37  32  82 NW6       29.95R
BLAINE         CLOUDY    37  37 100 NW5       29.96R
LAKEVILLE      CLOUDY    36  36 100 NW6       29.95R FOG
EDEN PRAIRIE   CLOUDY    39  34  82 NW5       29.95R
SOUTH ST PAUL  CLOUDY    37  36  94 N5        29.96R FOG
LAKE ELMO      DRIZZLE   36  36 100 N5        29.97R
$$
MNZ001>005-007-008-013>017-022>024-027-028-271100-
   Northwest Minnesota

CITY           SKY/WX    TMP DP  RH WIND       PRES   REMARKS
BEMIDJI        CLOUDY    32  31  98 NW3       29.94S
HALLOCK        FOG       30  30 100 CALM      29.96S VSB 1/4
ROSEAU         FOG       28  25  86 NW5       29.96S VSB 1/4 WCI  23
WARROAD        FOG       27  23  86 CALM      29.96S VSB 1
THIEF RVR FALL   N/A     28  27  93 MISG        N/A
CROOKSTON      FOG       32  32 100 CALM      29.97S VSB<1/4
FOSSTON        FOG       28  27  93 E5        29.95S VSB 3/4 WCI  23
DETROIT LAKES  PTCLDY    36  34  93 CALM      29.95S FOG
MOORHEAD       PTCLDY    34  34 100 CALM      29.96S FOG
PARK RAPIDS    CLOUDY    35  30  82 CALM      29.93S
MAHNOMEN       FOG       32  32  99 CALM      29.94S VSB 1/4
$$
MNZ006-009>011-018-025>026-271100-
   North Central Minnesota

CITY           SKY/WX    TMP DP  RH WIND       PRES   REMARKS
BAUDETTE       FOG       25  24  96 CALM      29.94S VSB 3/4
FLAG ISLAND    CLEAR     28  27  93 CALM      29.95F
INTL FALLS     CLEAR     26  23  88 CALM      29.95R
WASKISH        PTCLDY    27  27 100 CALM      29.95S
BIG FORK       MOCLDY    30  28  93 CALM      29.94S
LONGVILLE      CLOUDY    34  30  86 CALM      29.93S
GRAND RAPIDS   MOCLDY    34  31  88 N3        29.95R
CRANE LAKE     PTCLDY    27  25  93 CALM      29.96R
ORR            PTCLDY    30  27  86 CALM      29.92R
COOK           PTCLDY    30  28  93 CALM      29.94R
WALKER         FAIR      33  30  90 CALM      29.94S
$$
MNZ012-019>021-037-271100-
   Northeast Minnesota

CITY           SKY/WX    TMP DP  RH WIND       PRES   REMARKS
DULUTH         CLOUDY    32  31  96 N6        29.91S WCI  26
ELY            CLOUDY    30  28  93 CALM      29.92R
HIBBING        CLOUDY    30  30 100 CALM      29.92S
EVELETH        CLOUDY    32  31  96 CALM      29.93S
DULUTH HARBOR  CLOUDY    34  32  93 CALM      29.95F
TWO HARBORS    CLOUDY    36  30  80 CALM      29.91S
SILVER BAY     CLOUDY    34  34 100 CALM      29.91R
GRAND MARAIS     N/A     34  32  92 W5        29.93R WCI  30
G MARAIS ARPRT CLOUDY    32  28  86 NW6       29.88R WCI  26
$$
MNZ029>031-032-039>041-046>048-054>057-064-271100-
   West Central Minnesota

CITY           SKY/WX    TMP DP  RH WIND       PRES   REMARKS
FERGUS FALLS   CLOUDY    36  36 100 CALM      29.98S
WHEATON        CLOUDY    32  30  93 SE5       29.97S WCI  27
MORRIS         CLOUDY    34  32  93 N3        29.94F FOG
ALEXANDRIA     CLOUDY    36  34  92 CALM      29.94F
ELBOW LAKE     MOCLDY    34  34  99 CALM      29.95S
WADENA         CLOUDY    32  30  93 CALM      29.94S FOG
GLENWOOD       CLOUDY    36  36 100 N6        29.95S
APPLETON       CLOUDY    34  32  93 CALM      29.96S
BENSON         MOCLDY    34  30  86 CALM      29.96F FOG
ORTONVILLE     CLOUDY    34  32  93 CALM      29.94F FOG
MADISON        FOG       37  37 100 CALM      29.96S VSB 1/2
WILLMAR        CLOUDY    36  36 100 CALM      29.97R FOG
$$
MNZ033>034-036-042>043-049>051-058-059-271100-
   Central Minnesota

CITY           SKY/WX    TMP DP  RH WIND       PRES   REMARKS
ST CLOUD       CLOUDY    36  35  96 CALM      29.96R
SAUK CENTRE    CLOUDY    34  33  96 CALM      29.95S
PAYNESVILLE      N/A     34  34 100 W3        29.96R
AITKIN         CLOUDY    36  30  80 CALM      29.93R
PINE RIVER     CLOUDY    32  30  93 CALM      29.98R
BRAINERD       CLOUDY    33  31  92 SW3       29.95R
STAPLES        CLOUDY    32  30  93 W3        29.95R
LONG PRAIRIE   MOCLDY    34  32  93 CALM      29.95S
LITTLE FALLS   CLOUDY    32  32 100 CALM      29.95S
LITCHFIELD     CLOUDY    37  37 100 CALM      29.97R
BUFFALO        CLOUDY    37  36  94 CALM      29.96S
MAPLE LAKE     CLOUDY    37  37  99 CALM      29.97R FOG
HUTCHINSON     CLOUDY    38  37  97 NW5       29.97S
$$
MNZ037-044-045-052-053-271100-
   East Central Minnesota

CITY           SKY/WX    TMP DP  RH WIND       PRES   REMARKS
PRINCETON      CLOUDY    37  36  93 CALM      29.96S FOG
MORA           FOG       34  32  93 CALM      29.97S VSB 1/2
CAMBRIDGE      CLOUDY    37  36  93 CALM      29.94S FOG
RUSH CITY      CLOUDY    35  33  94 CALM      29.96R
MOOSE LAKE     FOG       32  32 100 CALM      29.92S VSB 3/4
CLOQUET        CLOUDY    30  30 100 CALM      29.92S
MCGREGOR       CLOUDY    32  32 100 CALM      29.93S
$$
MNZ071>073-080-081-089-090-097-098-271100-
   Southwest Minnesota

CITY           SKY/WX    TMP DP  RH WIND       PRES   REMARKS
MONTEVIDEO     CLOUDY    36  36 100 N5        29.98R
GRANITE FALLS  CLOUDY    39  37  93 CALM      29.98R
CANBY          CLOUDY    37  37  97 CALM      29.97R
MARSHALL       CLOUDY    37  36  96 CALM      29.96S
REDWOOD FALLS  CLOUDY    40  36  86 N5        29.95R
OLIVIA         CLOUDY    37  36  93 CALM      29.95S
PIPESTONE      CLOUDY    36  32  87 CALM      29.93F
WINDOM         PTCLDY    37  37 100 CALM      29.95R
WORTHINGTON    CLOUDY    36  34  92 NW7       29.95S
JACKSON        CLOUDY    37  37 100 CALM      29.95S FOG
TRACY          CLOUDY    40  38  91 NW3       29.96R
SLAYTON        CLOUDY    37  35  92 NW3       29.96R
$$
MNZ065>067-074>077-082>085-091>093-271100-
   South Central Minnesota

CITY           SKY/WX    TMP DP  RH WIND       PRES   REMARKS
MANKATO        CLOUDY    38  36  92 N6        29.95S
NEW ULM        CLOUDY    39  36  87 NW3       29.95S
ST JAMES       CLOUDY    37  37 100 CALM      29.96R
FAIRMONT       CLOUDY    39  37  92 NW5       29.94F
GLENCOE        CLOUDY    38  38 100 CALM      29.95S
FARIBAULT      CLOUDY    37  37 100 NW5       29.95R FOG
OWATONNA       CLOUDY    37  36  93 NW6       29.94S FOG
WASECA         CLOUDY    36  36 100 NW6       29.95S FOG
ALBERT LEA     CLOUDY    37  37 100 CALM      29.93S FOG
$$
MNZ078>079-086>088-094>096-271100-
   Southeast Minnesota

CITY           SKY/WX    TMP DP  RH WIND       PRES   REMARKS
ROCHESTER      CLOUDY    37  37 100 N7        29.92S FOG
RED WING       CLOUDY    39  37  93 CALM      29.94R FOG
STANTON        CLOUDY    38  37  94 NW3       29.94R FOG
DODGE CENTER   CLOUDY    37  37 100 NW7       29.92S FOG
WINONA         CLOUDY    39  37  93 NW5       29.94R FOG
AUSTIN         CLOUDY    37  37 100 CALM      29.93R FOG
PRESTON        FOG       38  37  97 NW3       29.92S VSB 1
$$
ABBREVIATIONS USED IN REMARKS
   TC - TEMPERATURES IN CELSIUS
  WCI - WIND CHILL INDEX
   HX - HEAT INDEX
  VSB - VISIBILITY
$$



USA.gov is the U.S. government's official web portal to all federal, state and local government web resources and services.